Showing default

SURCAL 150B, 2909

Orbit data source: Space-Track

SURCAL 150B, 2909 is a payload satellite owned by NRL (US) in LEO that was launched on Wed, 31 May 1967 UTC via a THOR SLV-2 AGENA D launch vehicle from the Air Force Western Test Range (AFWTR). Payloads include a variety of satellites, spacecraft, and rockets equipped with specific instruments for various scientific and technological missions. These include communications satellites like Starlink; space stations such as the ISS; scientific satellites like the Hubble; Earth observation satellites from companies like Planet Labs, Umbra, and HawkEye 360; GPS; miniature CubeSats for education and research; and military/defense satellites.

Loading next visibility...
SURCAL 150B details
Identifier
2909, 1967-053J
Orbit
LEO
Last TLE update12 hours ago
Origin
Flag of USNRL (US)
ManufacturerNRL
MissionOperational Defense Calibration
Bus & MotorSURCAL?, Unknown motor
Mass~5 kg wet, ~5 kg dry
Launch date (UTC)
1967-05-31 (58 years ago)
Launch vehicle
THOR SLV-2 AGENA D
Launch site
Air Force Western Test Range (AFWTR)
Object type
Payload
Rocket body
Debris
Shape & HBRBox, 0.2 m
Radar Cross Section0.060 m², Small (<0.1 m²)

Expand to show TLE details & history

TLE from 12 hours ago
0 SURCAL 150B
1  2909U 67053J   24356.08764320  .00038054  00000-0  31939-2 0  9998
2  2909  69.9316 204.9148 0002155 206.1701 153.9349 14.98159586999348
Epoch: 2024-12-21T02:06Z
Definitive object data (Epoch: 2024-12-21T02:06:12.372Z)
Latitude-0.00002°
Longitude83.21941°
Altitude576.348 km
Speed7.572 km/s
True Right ascension13h 39m 39s
True Declination0° 00' 00"
Sunlit
Object was in daylight at TLE epoch
Visualization TLE readout
Latitude-12.76178°
Longitude-93.33236°
Altitude575.942 km
Speed7.573 km/s
Apparent Right ascension01h 36m 27s
Apparent Declination-25° 41' 17"
Sunlit
Object is in daylight
Visualization observer readout
Local Sidereal Time13:12:55
Azimuth339.16° N
Elevation-74.946°
Doppler factor1
Orbital elements
Apogee altitude572.036 km
Perigee altitude569.041 km
Semi-major axis6,948.676 km
Eccentricity0.0002155
Inclination69.9316°
RAAN204.9148°
Arg. of periapsis206.1701°
True anomaly153.94575°
Mean anomaly153.9349°
Eccentric anomaly153.94032°
Mean motion3.74706 °/min
BSTAR0.0031939
Orbital period96.08 mins
Loading maneuver chart data...
Loading historical data...
Loading historical data...
Loading historical data...
Loading historical data...
Loading historical data...
Loading historical data...
Loading historical data...

SURCAL 150B Visibility forecast

Observer location: undefined°, undefined

Span
Click to sort rows by Start time (UTC) header in descending order
Start Az.
Max El. time (UTC)
Max El. Az.
Max El.
End time (UTC)
End Az.
7 mins2024-12-21 15:02:50.323Z170.03° S2024-12-21 15:05:50.323Z118.363° SE28.945°2024-12-21 15:09:50.323Z43.68° NE
4 mins2024-12-21 16:42:50.323Z272.77° WNW2024-12-21 16:44:50.323Z310.591° NW19.337°2024-12-21 16:46:50.323Z344.6° N
6 mins2024-12-22 01:05:50.323Z340.734° N2024-12-22 01:08:50.323Z101.991° ESE43.822°2024-12-22 01:11:50.323Z150.33° SSE
|